Weather History for Marrakech, Morocco

Change the Weather History Date:

Monday, December 15, 2014

  Actual Average Record
Temperature  
Mean Temperature 51 °F -  
Max Temperature 57 °F 64 °F 75 °F (2010)
Min Temperature 45 °F 42 °F 39 °F (2005)
Degree Days  
Heating Degree Days 14    
Growing Degree Days 1 (Base 50)    
Moisture  
Dew Point 49 °F    
Average Humidity 89    
Maximum Humidity 100    
Minimum Humidity 64    
Precipitation  
Precipitation 0.08 in 0.04 in - ()
Sea Level Pressure  
Sea Level Pressure 30.21 in    
Wind  
Wind Speed 8 mph ()    
Max Wind Speed 14 mph    
Max Gust Speed -    
Visibility 6.1 miles    
Events Rain    
Averages and records for this station are not official NWS values.
T = Trace of Precipitation, MM = Missing Value Source: Averaged Metar Reports

Daily Weather History Graph

Daily Weather History Graph

Search for Another Location

Airport:

Trip Planner

Search our weather history database for the weather conditions in past years. The results will help you decide how hot, cold, wet, or windy it might be!

Date:

Astronomy

Dec. 15, 2014 Rise Set
Actual Time 7:24 AM WET 5:30 PM WET
Civil Twilight 6:57 AM WET 5:57 PM WET
Nautical Twilight 6:26 AM WET 6:27 PM WET
Astronomical Twilight 5:57 AM WET 6:57 PM WET
Moon 12:51 AM WET (12/15) 1:03 PM WET (12/15)
Length of Visible Light 10h 59m
Length of Day
10h 06m
Last Quarter, 41% of the Moon is Illuminated
Dec 15
Last Quarter
Dec 22
New
Dec 28
First Quarter
Jan 5
Full
Jan 13
Last Quarter

Hourly Weather History & Observations

Time (WET) Temp. Dew Point Humidity Pressure Visibility Wind Dir Wind Speed Gust Speed Precip Events Conditions
12:00 AM 49 °F 46 °F 87% 30.17 in 6 mi SW 13.8 mph - -   Unknown Precipitation
12:00 AM 50.0 °F 46.4 °F 87% 30.15 in 6.2 mi WSW 12.7 mph - N/A Rain Light Rain
12:30 AM 50.0 °F 46.4 °F 87% 30.15 in 6.2 mi SW 6.9 mph - N/A Rain Light Rain
1:00 AM 50.0 °F 46.4 °F 87% 30.15 in 6.2 mi SW 13.8 mph - N/A Rain Light Rain
1:30 AM 50.0 °F 46.4 °F 87% 30.15 in 6.2 mi SW 13.8 mph - N/A   Unknown
2:00 AM 50.0 °F 48.2 °F 94% 30.15 in 6.2 mi SW 13.8 mph - N/A   Scattered Clouds
2:30 AM 50.0 °F 46.4 °F 87% 30.15 in 6.2 mi SW 11.5 mph - N/A   Scattered Clouds
3:00 AM 50 °F 48 °F 89% 30.16 in 6 mi SW 12.7 mph - -  
3:00 AM 50.0 °F 48.2 °F 94% 30.12 in 6.2 mi SW 12.7 mph - N/A   Unknown
3:30 AM 50.0 °F 48.2 °F 94% 30.15 in 6.2 mi SW 13.8 mph - N/A Rain Light Rain
4:00 AM 50.0 °F 48.2 °F 94% 30.15 in 6.2 mi SW 12.7 mph - N/A Rain Light Rain
4:30 AM 50.0 °F 48.2 °F 94% 30.15 in 6.2 mi SW 9.2 mph - N/A   Unknown
5:00 AM 50.0 °F 48.2 °F 94% 30.15 in 6.2 mi SW 11.5 mph - N/A   Scattered Clouds
5:30 AM 50.0 °F 48.2 °F 94% 30.15 in 6.2 mi SW 11.5 mph - N/A   Scattered Clouds
6:00 AM 51 °F 49 °F 88% 30.18 in 6 mi SW 11.5 mph - -   Unknown
6:00 AM 50.0 °F 48.2 °F 94% 30.15 in 6.2 mi SW 11.5 mph - N/A   Scattered Clouds
6:30 AM 50.0 °F 48.2 °F 94% 30.18 in 6.2 mi SW 11.5 mph - N/A   Scattered Clouds
7:00 AM 50.0 °F 48.2 °F 94% 30.18 in 6.2 mi Variable 2.3 mph - N/A Rain Light Rain
7:30 AM 50.0 °F 48.2 °F 94% 30.18 in 6.2 mi SW 5.8 mph - N/A Rain Light Rain
8:00 AM 50.0 °F 48.2 °F 94% 30.21 in 6.2 mi SW 5.8 mph - N/A   Scattered Clouds
8:30 AM 50.0 °F 50.0 °F 100% 30.21 in 6.2 mi SSW 5.8 mph - N/A   Mostly Cloudy
9:00 AM 51 °F 49 °F 89% 30.24 in 6 mi SW 4.6 mph - -   Mostly Cloudy
9:00 AM 51.8 °F 50.0 °F 94% 30.21 in 6.2 mi SW 5.8 mph - N/A   Mostly Cloudy
9:30 AM 51.8 °F 50.0 °F 94% 30.24 in 6.2 mi SW 5.8 mph - N/A   Mostly Cloudy
10:00 AM 55.4 °F 50.0 °F 82% 30.24 in 6.2 mi SW 6.9 mph - N/A   Mostly Cloudy
10:30 AM 55.4 °F 50.0 °F 82% 30.24 in 6.2 mi SW 4.6 mph - N/A   Mostly Cloudy
11:00 AM 55.4 °F 50.0 °F 82% 30.24 in 6.2 mi West 5.8 mph - N/A   Mostly Cloudy
11:30 AM 57.2 °F 50.0 °F 77% 30.24 in 6.2 mi Variable 2.3 mph - N/A   Mostly Cloudy
12:00 PM 57 °F 48 °F 64% 30.24 in 6 mi WSW 4.6 mph - -   Mostly Cloudy
12:00 PM 57.2 °F 48.2 °F 72% 30.24 in 6.2 mi WSW 4.6 mph - N/A   Mostly Cloudy
12:30 PM 57.2 °F 48.2 °F 72% 30.21 in 6.2 mi WSW 6.9 mph - N/A   Mostly Cloudy
1:00 PM 57.2 °F 48.2 °F 72% 30.21 in 6.2 mi WSW 8.1 mph - N/A   Mostly Cloudy
1:30 PM 57.2 °F 48.2 °F 72% 30.21 in 6.2 mi WSW 8.1 mph - N/A   Mostly Cloudy
2:00 PM 57.2 °F 50.0 °F 77% 30.21 in 6.2 mi West 8.1 mph - N/A   Mostly Cloudy
2:30 PM 55.4 °F 51.8 °F 88% 30.21 in 6.2 mi WNW 6.9 mph - N/A   Mostly Cloudy
3:00 PM 56 °F 52 °F 80% 30.21 in 6 mi West 8.1 mph - -   Mostly Cloudy
3:00 PM 55.4 °F 51.8 °F 88% 30.21 in 6.2 mi WNW 8.1 mph - N/A   Mostly Cloudy
3:30 PM 57.2 °F 51.8 °F 82% 30.21 in 6.2 mi WNW 6.9 mph - N/A   Mostly Cloudy
4:00 PM 57.2 °F 51.8 °F 82% 30.21 in 6.2 mi West 8.1 mph - N/A   Mostly Cloudy
4:30 PM 55.4 °F 51.8 °F 88% 30.21 in 6.2 mi WNW 10.4 mph - N/A   Mostly Cloudy
5:00 PM 55.4 °F 51.8 °F 88% 30.24 in 6.2 mi West 9.2 mph - N/A   Mostly Cloudy
5:30 PM 53.6 °F 51.8 °F 94% 30.24 in 6.2 mi WNW 6.9 mph - N/A   Mostly Cloudy
6:00 PM 53.6 °F 51.8 °F 94% 30.24 in 6.2 mi NW 6.9 mph - N/A   Mostly Cloudy
6:30 PM 51.8 °F 51.8 °F 100% 30.24 in 6.2 mi WNW 5.8 mph - N/A   Mostly Cloudy
7:00 PM 51.8 °F 51.8 °F 100% 30.27 in 5.6 mi SW 6.9 mph - N/A   Mostly Cloudy
7:30 PM 51.8 °F 51.8 °F 100% 30.27 in 6.2 mi SW 6.9 mph - N/A   Mostly Cloudy
8:00 PM 51.8 °F 51.8 °F 100% 30.27 in 6.2 mi Variable 1.2 mph - N/A   Mostly Cloudy
8:30 PM 53.6 °F 51.8 °F 94% 30.30 in 6.2 mi Calm Calm - N/A   Mostly Cloudy
9:00 PM 52 °F 50 °F 91% 30.31 in 6 mi Calm Calm - -   Mostly Cloudy
9:00 PM 51.8 °F 50.0 °F 94% 30.30 in 6.2 mi Calm Calm - N/A   Mostly Cloudy
9:30 PM 51.8 °F 50.0 °F 94% 30.30 in 6.2 mi Calm Calm - N/A   Mostly Cloudy
10:00 PM 50.0 °F 50.0 °F 100% 30.30 in 6.2 mi Calm Calm - N/A   Scattered Clouds
10:30 PM 50.0 °F 50.0 °F 100% 30.30 in 6.2 mi Calm Calm - N/A   Scattered Clouds
11:00 PM 48.2 °F 48.2 °F 100% 30.30 in 5.0 mi Calm Calm - N/A   Mostly Cloudy
11:30 PM 50.0 °F 50.0 °F 100% 30.30 in 6.2 mi Calm Calm - N/A   Mostly Cloudy